This is the latest recevied weather packets stored in our database for station/object W5ZYX. If no packets are shown the sender has not sent any weather packets the latest 1 day(s).
| Time | Temp. | Humidity | Pressure | Rain* | Wind** | Luminosity | Snow |
|---|---|---|---|---|---|---|---|
| 1836274721 | 22.22° C | 81% | 1016.4 hPa | 0 mm | 0 m/s | - | - |
| 1836274561 | 22.22° C | 80% | 1016.5 hPa | 0 mm | 0 m/s | - | - |
| 1836274410 | 22.22° C | 81% | 1016.4 hPa | 0 mm | 0 m/s | - | - |
| 1836274264 | 22.22° C | 80% | 1016.4 hPa | 0 mm | 0 m/s | - | - |
| 1836274111 | 22.22° C | 81% | 1016.4 hPa | 0 mm | 0 m/s | - | - |
| 1778037039 | 25° C | 85% | 1008.3 hPa | 0 mm | 2.24 m/s, 127° | - | - |
| 1778036737 | 25° C | 86% | 1008.2 hPa | 0 mm | 1.79 m/s, 150° | - | - |
| 1778036448 | 25° C | 85% | 1008.2 hPa | 0 mm | 1.79 m/s, 190° | - | - |
| 1778036135 | 25° C | 85% | 1008.3 hPa | 0 mm | 1.79 m/s, 213° | - | - |
| 1778035836 | 25° C | 85% | 1008.2 hPa | 0 mm | 1.79 m/s, 187° | - | - |
| 1778035549 | 25° C | 85% | 1008 hPa | 0 mm | 1.34 m/s, 170° | - | - |
| 1778035236 | 25° C | 85% | 1007.9 hPa | 0 mm | 1.34 m/s, 170° | - | - |
| 1778034937 | 25° C | 85% | 1007.9 hPa | 0 mm | 1.79 m/s, 155° | - | - |
| 1778034648 | 25° C | 84% | 1007.8 hPa | 0 mm | 1.34 m/s, 198° | - | - |
| 1778034336 | 25° C | 84% | 1007.8 hPa | 0 mm | 1.34 m/s, 171° | - | - |
| 1778034036 | 25° C | 84% | 1007.8 hPa | 0 mm | 1.34 m/s, 178° | - | - |
| 1778033754 | 25° C | 84% | 1007.7 hPa | 0 mm | 1.34 m/s, 164° | - | - |
| 1778033436 | 25° C | 84% | 1007.8 hPa | 0 mm | 1.34 m/s, 173° | - | - |
| 1778033139 | 25° C | 83% | 1007.8 hPa | 0 mm | 0.89 m/s, 0° | - | - |
| 1778032847 | 25.56° C | 83% | 1007.8 hPa | 0 mm | 0.45 m/s, 175° | - | - |
| 1778032539 | 25.56° C | 83% | 1007.7 hPa | 0 mm | 0.45 m/s, 0° | - | - |
| 1778032237 | 25.56° C | 83% | 1007.6 hPa | 0 mm | 0.89 m/s, 177° | - | - |
| 1778031947 | 25.56° C | 82% | 1007.6 hPa | 0 mm | 0.45 m/s, 172° | - | - |
| 1778031637 | 25.56° C | 82% | 1007.5 hPa | 0 mm | 0 m/s | - | - |
| 1778031336 | 25.56° C | 82% | 1007.5 hPa | 0 mm | 0.89 m/s, 215° | - | - |
* Rain latest hour (hover to see other rain measurements)
** Current wind speed in m/s (hover to see current wind gust speed)